CW0352 Weather Reports


Display with metric or nautical units.
time (UTC)temp
F
wind
direction
speed
MPH
gust
MPH
rain 1hr
in
rain 24hr
in
rain mn
in
humidity
%
barometer
mb
20260905163021 89 130 4.0 12.0 0.00 0.00 0.00 46 1018.6
20260905162402 89 133 3.0 9.0 0.00 0.00 0.00 45 1018.4
20260905161853 88 152 3.0 9.0 0.00 0.00 0.00 47 1018.4
20260905161738 88 123 3.0 10.0 0.00 0.00 0.00 47 1018.4
20260905161648 88 123 3.0 10.0 0.00 0.00 0.00 47 1018.4
20260905160833 88 129 4.0 11.0 0.00 0.00 0.00 48 1018.4
20260905160331 87 128 3.0 11.0 0.00 0.00 0.00 48 1018.4
20260905160052 87 133 4.0 11.0 0.00 0.00 0.00 49 1018.4
20260905160003 87 163 4.0 11.0 0.00 0.00 0.00 49 1018.4
20260905155932 87 133 4.0 11.0 0.00 0.00 0.00 49 1018.4
20260905155616 87 163 4.0 11.0 0.00 0.00 0.00 49 1018.4
20260905154822 87 150 4.0 10.0 0.00 0.00 0.00 49 1018.3
20260905154319 87 138 3.0 7.0 0.00 0.00 0.00 50 1018.3
20260905153821 86 159 3.0 9.0 0.00 0.00 0.00 50 1018.1
20260905153317 86 149 3.0 9.0 0.00 0.00 0.00 49 1018.0
20260905152802 86 163 3.0 8.0 0.00 0.00 0.00 49 1017.9
20260905152522 86 181 3.0 9.0 0.00 0.00 0.00 50 1017.9
20260905152402 86 181 3.0 9.0 0.00 0.00 0.00 50 1017.9
20260905151729 85 144 3.0 10.0 0.00 0.00 0.00 50 1017.9
20260905151228 84 244 2.0 10.0 0.00 0.00 0.00 50 1017.8
20260905150703 83 157 2.0 6.0 0.00 0.00 0.00 53 1017.9
20260905150135 83 128 1.0 4.0 0.00 0.00 0.00 55 1017.8
20260905145841 82 126 2.0 6.0 0.00 0.00 0.00 57 1017.7
20260905145715 82 126 2.0 6.0 0.00 0.00 0.00 57 1017.7
20260905145107 81 126 2.0 6.0 0.00 0.00 0.00 58 1017.7
20260905144556 79 96 1.0 4.0 0.00 0.00 0.00 60 1017.6
20260905144051 78 96 1.0 3.0 0.00 0.00 0.00 63 1017.7
20260905143526 76 196 0.0 3.0 0.00 0.00 0.00 66 1018.3
20260905143030 75 22 0.0 0.0 0.00 0.00 0.00 69 1017.7
20260905142521 74 104 0.0 0.0 0.00 0.00 0.00 70 1017.8
20260905142216 73 104 0.0 0.0 0.00 0.00 0.00 72 1017.7
20260905142059 73 104 0.0 0.0 0.00 0.00 0.00 72 1017.7
20260905141446 73 247 0.0 0.0 0.00 0.00 0.00 72 1017.7
20260905140926 72 247 0.0 1.0 0.00 0.00 0.00 74 1017.6
20260905140420 71 271 0.0 0.0 0.00 0.00 0.00 74 1017.7
20260905135853 71 271 0.0 0.0 0.00 0.00 0.00 75 1017.6
20260905135349 70 0 0.0 0.0 0.00 0.00 0.00 76 1017.6
20260905135105 70 0 0.0 0.0 0.00 0.00 0.00 76 1017.7
20260905134946 70 0 0.0 0.0 0.00 0.00 0.00 76 1017.7
20260905134332 69 0 0.0 0.0 0.00 0.00 0.00 77 1017.5
20260905133809 68 0 0.0 0.0 0.00 0.00 0.00 78 1017.5
20260905133239 68 0 0.0 0.0 0.00 0.00 0.00 78 1017.4
20260905132722 68 0 0.0 0.0 0.00 0.00 0.00 78 1017.4
20260905132205 67 0 0.0 2.0 0.00 0.00 0.00 78 1017.4
20260905131711 67 0 0.0 2.0 0.00 0.00 0.00 79 1017.1
20260905131535 67 0 0.0 2.0 0.00 0.00 0.00 80 1017.2
20260905131454 67 0 0.0 2.0 0.00 0.00 0.00 80 1017.2
20260905130703 66 0 0.0 1.0 0.00 0.00 0.00 80 1017.0
20260905130133 66 0 0.0 1.0 0.00 0.00 0.00 80 1017.0
20260905125628 65 0 0.0 1.0 0.00 0.00 0.00 80 1016.9
20260905125322 65 0 0.0 2.0 0.00 0.00 0.00 80 1016.8
20260905125205 65 0 0.0 2.0 0.00 0.00 0.00 80 1016.8
20260905124601 65 0 0.0 2.0 0.00 0.00 0.00 79 1016.7
20260905124100 66 0 0.0 1.0 0.00 0.00 0.00 79 1016.7
20260905123601 66 0 0.0 1.0 0.00 0.00 0.00 79 1016.6
20260905123033 66 0 0.0 0.0 0.00 0.00 0.00 79 1016.4
20260905123001 66 0 0.0 0.0 0.00 0.00 0.00 78 1016.5
20260905122613 66 0 0.0 0.0 0.00 0.00 0.00 78 1016.5
20260905121944 66 0 0.0 0.0 0.00 0.00 0.00 77 1016.4
20260905121436 67 0 0.0 0.0 0.00 0.00 0.00 77 1016.3
20260905121129 67 0 0.0 0.0 0.00 0.00 0.00 76 1016.4
20260905121016 67 0 0.0 0.0 0.00 0.00 0.00 76 1016.4
20260905120715 67 0 0.0 0.0 0.00 0.00 0.00 76 1016.4
20260905120633 67 0 0.0 0.0 0.00 0.00 0.00 76 1016.4
20260905115839 67 0 0.0 0.0 0.00 0.00 0.00 76 1016.5
20260905115336 67 0 0.0 0.0 0.00 0.00 0.00 76 1016.5
20260905114831 68 0 0.0 0.0 0.00 0.00 0.00 75 1016.5
20260905114327 68 0 0.0 0.0 0.00 0.00 0.00 75 1016.6
20260905113803 68 0 0.0 0.0 0.00 0.00 0.00 74 1016.5
20260905113244 68 0 0.0 0.0 0.00 0.00 0.00 73 1016.4
20260905112706 68 0 0.0 0.0 0.00 0.00 0.00 73 1016.5
20260905112216 68 0 0.0 3.0 0.00 0.00 0.00 73 1016.5
20260905112157 69 0 0.0 3.0 0.00 0.00 0.00 73 1016.6
20260905111811 69 0 0.0 3.0 0.00 0.00 0.00 73 1016.6
20260905111210 69 0 1.0 5.0 0.00 0.00 0.00 73 1016.7
20260905110701 69 0 1.0 5.0 0.00 0.00 0.00 73 1016.8
20260905110159 69 0 1.0 3.0 0.00 0.00 0.00 73 1016.9
20260905105653 69 0 1.0 3.0 0.00 0.00 0.00 72 1016.9
20260905105624 69 0 1.0 4.0 0.00 0.00 0.00 72 1016.8
20260905105231 69 0 1.0 4.0 0.00 0.00 0.00 72 1016.8
20260905104606 69 0 1.0 4.0 0.00 0.00 0.00 72 1016.8
20260905104037 69 0 0.0 2.0 0.00 0.00 0.00 72 1016.8
20260905103533 69 0 0.0 2.0 0.00 0.00 0.00 71 1016.9
20260905103010 69 0 0.0 0.0 0.00 0.00 0.00 71 1016.9
20260905102450 69 0 0.0 0.0 0.00 0.00 0.00 71 1016.8
20260905101939 69 0 0.0 0.0 0.00 0.00 0.00 70 1016.7
20260905101416 69 0 0.0 0.0 0.00 0.00 0.00 69 1016.7
20260905100921 70 0 0.0 1.0 0.00 0.00 0.00 69 1016.8
20260905100402 70 0 0.0 1.0 0.00 0.00 0.00 69 1016.7
20260905095902 70 0 0.0 0.0 0.00 0.00 0.00 68 1016.8
20260905095404 70 0 0.0 0.0 0.00 0.00 0.00 68 1016.8
20260905094858 70 0 0.0 2.0 0.00 0.00 0.00 67 1016.8
20260905094333 71 0 1.0 3.0 0.00 0.00 0.00 67 1016.8
20260905094027 71 0 0.0 3.0 0.00 0.00 0.00 66 1016.9
20260905093913 71 0 0.0 3.0 0.00 0.00 0.00 66 1016.9
20260905093305 71 0 0.0 3.0 0.00 0.00 0.00 66 1016.8
20260905092747 71 0 1.0 4.0 0.00 0.00 0.00 66 1016.9
20260905092247 71 0 1.0 3.0 0.00 0.00 0.00 66 1016.9
20260905091720 71 0 1.0 4.0 0.00 0.00 0.00 66 1016.9
20260905091217 71 0 1.0 4.0 0.00 0.00 0.00 65 1017.0
20260905090722 71 0 1.0 4.0 0.00 0.00 0.00 65 1017.1
20260905090543 71 0 1.0 4.0 0.00 0.00 0.00 65 1017.1
20260905090450 71 0 1.0 4.0 0.00 0.00 0.00 65 1017.1
20260905085651 71 0 1.0 4.0 0.00 0.00 0.00 65 1017.2
20260905085156 72 0 1.0 4.0 0.00 0.00 0.00 65 1017.2
20260905084652 72 0 2.0 5.0 0.00 0.00 0.00 64 1017.1
20260905084150 72 0 2.0 9.0 0.00 0.00 0.00 64 1017.2
20260905083638 72 0 3.0 9.0 0.00 0.00 0.00 63 1017.1
20260905083133 72 0 2.0 8.0 0.00 0.00 0.00 63 1017.0
20260905082638 72 0 2.0 6.0 0.00 0.00 0.00 63 1017.1
20260905082105 73 0 2.0 8.0 0.00 0.00 0.00 63 1017.0
20260905081603 73 0 1.0 8.0 0.00 0.00 0.00 63 1016.9
20260905081057 73 0 1.0 5.0 0.00 0.00 0.00 63 1016.9
20260905080557 73 0 1.0 4.0 0.00 0.00 0.00 62 1016.9
20260905080107 73 0 1.0 3.0 0.00 0.00 0.00 62 1017.0
20260905075532 74 0 0.0 3.0 0.00 0.00 0.00 62 1017.0
20260905075012 74 0 1.0 4.0 0.00 0.00 0.00 61 1017.0
20260905074521 74 0 1.0 6.0 0.00 0.00 0.00 60 1016.9
20260905074007 75 0 1.0 6.0 0.00 0.00 0.00 60 1017.0
20260905073446 75 0 2.0 6.0 0.00 0.00 0.00 59 1016.9
20260905073156 76 0 2.0 6.0 0.00 0.00 0.00 58 1016.9
20260905073034 76 0 2.0 6.0 0.00 0.00 0.00 58 1016.9
20260905072425 76 0 1.0 4.0 0.00 0.00 0.00 57 1016.9
20260905071926 76 0 1.0 4.0 0.00 0.00 0.00 56 1017.0
20260905071403 76 0 1.0 4.0 0.00 0.00 0.00 56 1017.1
20260905070902 77 0 1.0 5.0 0.00 0.00 0.00 55 1016.9
20260905070356 77 0 2.0 5.0 0.00 0.00 0.00 55 1016.9
20260905065854 77 0 2.0 5.0 0.00 0.00 0.00 54 1016.9
20260905065349 77 0 2.0 6.0 0.00 0.00 0.00 54 1016.9
20260905064846 78 0 2.0 6.0 0.00 0.00 0.00 53 1016.9
20260905064605 78 0 2.0 8.0 0.00 0.00 0.00 53 1017.0
20260905064443 78 0 2.0 8.0 0.00 0.00 0.00 53 1017.0
20260905063825 78 0 2.0 8.0 0.00 0.00 0.00 53 1017.0
20260905063319 77 0 2.0 6.0 0.00 0.00 0.00 53 1017.0
20260905063039 77 0 1.0 6.0 0.00 0.00 0.00 53 1017.1
20260905062910 77 0 1.0 6.0 0.00 0.00 0.00 53 1017.1
20260905062245 77 0 1.0 5.0 0.00 0.00 0.00 54 1017.1
20260905061712 77 0 2.0 5.0 0.00 0.00 0.00 54 1017.2
20260905061209 77 0 1.0 9.0 0.00 0.00 0.00 55 1017.2
20260905060702 77 0 1.0 9.0 0.00 0.00 0.00 56 1017.2
20260905060159 77 0 1.0 5.0 0.00 0.00 0.00 56 1017.1
20260905055655 77 0 1.0 5.0 0.00 0.00 0.00 56 1017.0
20260905055138 77 0 1.0 3.0 0.00 0.00 0.00 56 1017.0
20260905054639 77 0 1.0 3.0 0.00 0.00 0.00 56 1016.9
20260905054137 77 0 1.0 3.0 0.00 0.00 0.00 56 1016.8
20260905053639 77 0 0.0 3.0 0.00 0.00 0.00 56 1016.8
20260905053144 78 0 0.0 3.0 0.00 0.00 0.00 55 1016.9
20260905052639 78 0 1.0 3.0 0.00 0.00 0.00 55 1016.8
20260905052343 78 0 1.0 4.0 0.00 0.00 0.00 55 1016.8
20260905052218 78 0 1.0 4.0 0.00 0.00 0.00 55 1016.8
20260905051610 78 0 2.0 4.0 0.00 0.00 0.00 55 1016.8
20260905051322 78 0 1.0 4.0 0.00 0.00 0.00 55 1016.9
20260905051202 78 0 1.0 4.0 0.00 0.00 0.00 55 1016.9
20260905050805 79 0 1.0 4.0 0.00 0.00 0.00 56 1016.8
20260905050649 79 0 1.0 4.0 0.00 0.00 0.00 56 1016.8
20260905050056 79 0 1.0 4.0 0.00 0.00 0.00 56 1016.9
20260905045544 80 0 1.0 4.0 0.00 0.00 0.00 56 1016.9
20260905045305 80 0 1.0 3.0 0.00 0.00 0.00 56 1016.9
20260905045145 80 0 1.0 3.0 0.00 0.00 0.00 56 1016.9
20260905044513 80 0 0.0 2.0 0.00 0.00 0.00 56 1017.0
20260905044018 81 0 0.0 3.0 0.00 0.00 0.00 56 1017.0
20260905043444 81 0 0.0 3.0 0.00 0.00 0.00 55 1017.0
20260905042935 81 0 1.0 3.0 0.00 0.00 0.00 55 1016.9
20260905042637 81 0 2.0 5.0 0.00 0.00 0.00 55 1017.0
20260905042524 81 0 2.0 5.0 0.00 0.00 0.00 55 1017.0
20260905041914 81 0 2.0 5.0 0.00 0.00 0.00 54 1017.0
20260905041414 82 0 1.0 4.0 0.00 0.00 0.00 55 1016.9
20260905040841 82 0 0.0 3.0 0.00 0.00 0.00 54 1016.9
20260905040324 82 0 0.0 3.0 0.00 0.00 0.00 54 1016.8
20260905035823 82 0 1.0 3.0 0.00 0.00 0.00 53 1016.8
20260905035321 82 0 1.0 4.0 0.00 0.00 0.00 54 1016.7
20260905034822 82 0 2.0 5.0 0.00 0.00 0.00 54 1016.7
20260905034259 82 0 2.0 5.0 0.00 0.00 0.00 54 1016.6
20260905033757 82 0 2.0 5.0 0.00 0.00 0.00 54 1016.8
20260905033252 82 0 2.0 5.0 0.00 0.00 0.00 54 1016.7
20260905032748 82 0 2.0 5.0 0.00 0.00 0.00 54 1016.6
20260905032221 82 0 1.0 4.0 0.00 0.00 0.00 54 1016.6
20260905031717 82 0 1.0 4.0 0.00 0.00 0.00 54 1016.5
20260905031214 82 0 0.0 3.0 0.00 0.00 0.00 54 1016.6
20260905030651 82 0 1.0 2.0 0.00 0.00 0.00 53 1016.4
20260905030150 82 0 1.0 3.0 0.00 0.00 0.00 53 1016.1
20260905025611 82 0 1.0 4.0 0.00 0.00 0.00 53 1016.1
20260905025049 83 0 1.0 4.0 0.00 0.00 0.00 52 1016.0
20260905024806 83 0 0.0 3.0 0.00 0.00 0.00 53 1016.0
20260905024648 83 0 0.0 3.0 0.00 0.00 0.00 53 1016.0
20260905024037 83 0 1.0 3.0 0.00 0.00 0.00 53 1015.9
20260905023508 83 0 1.0 5.0 0.00 0.00 0.00 52 1015.8
20260905022952 83 0 1.0 5.0 0.00 0.00 0.00 53 1015.8
20260905022433 84 0 1.0 3.0 0.00 0.00 0.00 53 1015.7
20260905022208 85 0 1.0 4.0 0.00 0.00 0.00 52 1015.6
20260905022049 85 0 1.0 4.0 0.00 0.00 0.00 52 1015.6
20260905021705 85 0 1.0 5.0 0.00 0.00 0.00 52 1015.6
20260905021535 85 0 1.0 5.0 0.00 0.00 0.00 52 1015.6
20260905020904 86 0 1.0 5.0 0.00 0.00 0.00 51 1015.6
20260905020627 86 0 2.0 8.0 0.00 0.00 0.00 52 1015.6
20260905020501 86 0 2.0 8.0 0.00 0.00 0.00 52 1015.6
20260905015857 87 0 2.0 9.0 0.00 0.00 0.00 49 1015.6
20260905015354 87 0 4.0 10.0 0.00 0.00 0.00 45 1015.5
20260905014828 87 0 5.0 13.0 0.00 0.00 0.00 45 1015.2
20260905014323 87 0 6.0 13.0 0.00 0.00 0.00 44 1015.0
20260905014029 87 0 6.0 13.0 0.00 0.00 0.00 42 1015.0
20260905013902 87 0 6.0 13.0 0.00 0.00 0.00 42 1015.0
20260905013304 87 0 7.0 15.0 0.00 0.00 0.00 42 1014.9
20260905013023 88 0 6.0 15.0 0.00 0.00 0.00 42 1014.8
20260905012900 88 0 6.0 15.0 0.00 0.00 0.00 42 1014.8
20260905012251 89 0 5.0 14.0 0.00 0.00 0.00 40 1014.9
20260905011724 89 0 5.0 16.0 0.00 0.00 0.00 40 1014.8
20260905011225 91 0 6.0 16.0 0.00 0.00 0.00 40 1014.9
20260905010722 92 186 5.0 19.0 0.00 0.00 0.00 38 1015.0
20260905010222 93 145 5.0 19.0 0.00 0.00 0.00 36 1014.9
20260905005923 93 146 4.0 11.0 0.00 0.00 0.00 35 1014.7
20260905005806 93 146 4.0 11.0 0.00 0.00 0.00 35 1014.7
20260905005153 93 140 4.0 11.0 0.00 0.00 0.00 35 1014.5
20260905004908 94 152 4.0 11.0 0.00 0.00 0.00 35 1014.5
20260905004738 94 152 4.0 11.0 0.00 0.00 0.00 35 1014.5
20260905004134 94 136 3.0 9.0 0.00 0.00 0.00 35 1014.5
20260905003610 94 175 3.0 10.0 0.00 0.00 0.00 35 1014.5
20260905003047 94 121 3.0 10.0 0.00 0.00 0.00 35 1014.4
20260905002546 94 137 3.0 9.0 0.00 0.00 0.00 34 1014.6
20260905002032 95 138 3.0 12.0 0.00 0.00 0.00 34 1014.5
20260905001518 95 128 4.0 12.0 0.00 0.00 0.00 33 1014.4
20260905001014 95 146 3.0 9.0 0.00 0.00 0.00 33 1014.4
20260905000513 96 142 3.0 8.0 0.00 0.00 0.00 32 1014.4
20260904235959 96 154 3.0 8.0 0.00 0.00 0.00 31 1014.4
20260904235442 96 142 3.0 8.0 0.00 0.00 0.00 31 1014.2
20260904234921 96 161 3.0 9.0 0.00 0.00 0.00 31 1014.3
20260904234409 97 148 2.0 9.0 0.00 0.00 0.00 31 1014.3
20260904233909 97 134 1.0 5.0 0.00 0.00 0.00 31 1014.3
20260904233407 97 136 1.0 5.0 0.00 0.00 0.00 31 1014.3
20260904232907 97 136 1.0 5.0 0.00 0.00 0.00 31 1014.3
20260904232411 98 138 2.0 7.0 0.00 0.00 0.00 31 1014.2
20260904231905 98 138 2.0 7.0 0.00 0.00 0.00 31 1014.2
20260904231407 98 132 2.0 4.0 0.00 0.00 0.00 31 1014.2
20260904230903 98 113 2.0 7.0 0.00 0.00 0.00 31 1014.1
20260904230347 98 151 2.0 7.0 0.00 0.00 0.00 30 1014.1
20260904225821 98 188 3.0 9.0 0.00 0.00 0.00 30 1014.1
20260904225257 99 150 3.0 7.0 0.00 0.00 0.00 29 1014.1
20260904224752 99 186 3.0 9.0 0.00 0.00 0.00 28 1014.1
20260904224253 100 202 3.0 7.0 0.00 0.00 0.00 28 1014.1
20260904223727 100 171 3.0 10.0 0.00 0.00 0.00 27 1014.2
20260904223203 100 144 4.0 14.0 0.00 0.00 0.00 28 1014.1
20260904222636 101 157 5.0 14.0 0.00 0.00 0.00 27 1013.9
20260904222136 101 115 6.0 15.0 0.00 0.00 0.00 27 1014.1
20260904221849 102 123 6.0 16.0 0.00 0.00 0.00 27 1014.1
20260904221731 102 123 6.0 16.0 0.00 0.00 0.00 27 1014.1
20260904221114 101 171 4.0 16.0 0.00 0.00 0.00 27 1013.9
20260904220532 101 155 4.0 11.0 0.00 0.00 0.00 28 1014.1
20260904220004 100 192 4.0 11.0 0.00 0.00 0.00 28 1014.2
20260904215447 101 139 4.0 14.0 0.00 0.00 0.00 28 1014.1
20260904214946 101 205 5.0 14.0 0.00 0.00 0.00 27 1013.9
20260904214555 102 248 5.0 13.0 0.00 0.00 0.00 28 1014.1
20260904214501 102 169 5.0 13.0 0.00 0.00 0.00 28 1014.1
20260904214240 102 248 5.0 13.0 0.00 0.00 0.00 28 1014.1
20260904213435 101 126 5.0 13.0 0.00 0.00 0.00 29 1014.1
20260904212910 101 93 5.0 17.0 0.00 0.00 0.00 28 1014.3
20260904212846 100 173 5.0 17.0 0.00 0.00 0.00 29 1014.3
20260904212504 100 173 5.0 17.0 0.00 0.00 0.00 29 1014.3
20260904211904 100 163 5.0 16.0 0.00 0.00 0.00 30 1014.3
20260904211618 99 87 5.0 17.0 0.00 0.00 0.00 30 1014.3
20260904211505 99 87 5.0 17.0 0.00 0.00 0.00 30 1014.3
20260904210843 98 150 4.0 17.0 0.00 0.00 0.00 31 1014.2
20260904210344 98 141 3.0 8.0 0.00 0.00 0.00 32 1014.3
20260904205832 98 170 5.0 14.0 0.00 0.00 0.00 32 1014.4
20260904205528 99 136 5.0 14.0 0.00 0.00 0.00 31 1014.5
20260904205411 99 136 5.0 14.0 0.00 0.00 0.00 31 1014.5
20260904204811 100 170 4.0 11.0 0.00 0.00 0.00 31 1014.5
20260904204240 100 130 5.0 11.0 0.00 0.00 0.00 30 1014.6
20260904203713 100 207 4.0 12.0 0.00 0.00 0.00 31 1014.7
20260904203147 99 169 4.0 12.0 0.00 0.00 0.00 32 1014.7
20260904202617 99 215 5.0 11.0 0.00 0.00 0.00 32 1014.8
20260904202104 98 145 5.0 11.0 0.00 0.00 0.00 34 1014.7
20260904201525 97 138 6.0 11.0 0.00 0.00 0.00 35 1014.7
20260904201003 97 138 6.0 15.0 0.00 0.00 0.00 34 1014.8
20260904200455 97 163 6.0 15.0 0.00 0.00 0.00 34 1014.8
20260904195953 97 161 4.0 12.0 0.00 0.00 0.00 33 1014.8
20260904195427 96 178 3.0 9.0 0.00 0.00 0.00 34 1014.8
20260904195138 95 174 3.0 8.0 0.00 0.00 0.00 34 1014.8
20260904195025 95 174 3.0 8.0 0.00 0.00 0.00 34 1014.8
20260904194641 95 123 3.0 8.0 0.00 0.00 0.00 34 1014.8
20260904194521 95 123 3.0 8.0 0.00 0.00 0.00 34 1014.8
20260904193851 94 145 2.0 8.0 0.00 0.00 0.00 36 1014.8
20260904193326 94 113 1.0 4.0 0.00 0.00 0.00 36 1014.9
20260904193305 94 113 0.0 3.0 0.00 0.00 0.00 38 1014.9
20260904192905 94 113 0.0 3.0 0.00 0.00 0.00 38 1014.9
20260904192233 93 113 0.0 3.0 0.00 0.00 0.00 37 1014.9
20260904191709 93 113 0.0 4.0 0.00 0.00 0.00 37 1014.9
20260904191209 92 113 0.0 4.0 0.00 0.00 0.00 38 1015.0
20260904190643 91 198 0.0 2.0 0.00 0.00 0.00 40 1015.3
20260904190140 91 198 0.0 4.0 0.00 0.00 0.00 39 1015.4
20260904185645 90 198 0.0 4.0 0.00 0.00 0.00 39 1015.4
20260904185123 90 198 1.0 4.0 0.00 0.00 0.00 38 1015.4
20260904184540 90 198 3.0 5.0 0.00 0.00 0.00 38 1015.4
20260904184241 91 198 3.0 7.0 0.00 0.00 0.00 37 1015.5
20260904184124 91 198 3.0 7.0 0.00 0.00 0.00 37 1015.5
20260904183447 91 176 3.0 9.0 0.00 0.00 0.00 39 1015.4
20260904182942 91 134 3.0 7.0 0.00 0.00 0.00 40 1015.7
20260904182445 92 142 2.0 6.0 0.00 0.00 0.00 37 1015.6
20260904181940 92 190 1.0 4.0 0.00 0.00 0.00 32 1015.7
20260904181438 93 190 3.0 9.0 0.00 0.00 0.00 32 1015.7
20260904181151 94 195 3.0 9.0 0.00 0.00 0.00 31 1015.8
20260904181032 94 195 3.0 9.0 0.00 0.00 0.00 31 1015.8
20260904180425 95 214 3.0 7.0 0.00 0.00 0.00 29 1015.9
20260904175858 96 198 2.0 7.0 0.00 0.00 0.00 29 1015.8
20260904175330 96 192 3.0 10.0 0.00 0.00 0.00 30 1015.7
20260904174803 97 151 2.0 9.0 0.00 0.00 0.00 28 1015.7
20260904174258 96 179 2.0 9.0 0.00 0.00 0.00 31 1015.6
20260904173754 96 171 3.0 9.0 0.00 0.00 0.00 31 1015.7
20260904173243 95 202 3.0 10.0 0.00 0.00 0.00 32 1015.7
20260904172704 94 159 4.0 10.0 0.00 0.00 0.00 33 1015.7
20260904172147 94 214 4.0 10.0 0.00 0.00 0.00 34 1015.7
20260904171146 92 205 4.0 10.0 0.00 0.00 0.00 36 1015.7
20260904170655 92 199 3.0 9.0 0.00 0.00 0.00 38 1015.7
20260904170140 92 233 4.0 12.0 0.00 0.00 0.00 39 1015.7
20260904165615 92 235 4.0 12.0 0.00 0.00 0.00 38 1015.7
20260904165118 91 198 3.0 9.0 0.00 0.00 0.00 40 1015.8
20260904164606 90 263 3.0 10.0 0.00 0.00 0.00 40 1015.7
20260904164049 90 239 2.0 10.0 0.00 0.00 0.00 40 1015.8
20260904163757 89 170 4.0 12.0 0.00 0.00 0.00 42 1015.8
20260904163641 89 170 4.0 12.0 0.00 0.00 0.00 42 1015.8